Home   Weather   Erlangen   Past weeks

Flag for Germany Past Weather in Erlangen, Bavaria, Germany — Yesterday and Last 2 Weeks

Now
43 °F

Broken clouds.


Feels Like: 43 °F
Forecast: 36 / 54 °F
Wind: 2 mph from North

Location: Nuernberg

Current Time: Apr 28, 2017 at 10:23:32 am

Latest Report: Apr 28, 2017 at 9:50 am


Visibility: 5 mi

Pressure: 29.89 "Hg

Humidity: 81%

Dew Point: 37 °F

Location of ErlangenLocation

Past Weather in Erlangen — Graph

°F

Erlangen Temperature Yesterday

Maximum temperature yesterday: 46 °F (at 3:50 pm)
Minimum temperature yesterday: 37 °F (at 2:50 am)
Average temperature yesterday: 42 °F

High & Low Weather Summary for the Past Weeks

 TemperatureHumidityPressure
High59 °F (Apr 24, 3:50 pm)100% (Apr 17, 11:50 am)30.54 "Hg (Apr 17, 11:50 am)
Low27 °F (Apr 20, 5:20 am)31% (Apr 24, 4:20 pm)29.71 "Hg (Apr 25, 2:50 am)
Average43 °F71%30.09 "Hg
* Reported Apr 13 8:20 am — Apr 28 8:50 am, Erlangen, Weather by CustomWeather, © 2017

Note: Actual official high and low records may vary slightly from our data, if they occured in-between our weather recording intervals... More about our weather records

Advertising

Erlangen Weather History for the Previous 24 Hours

Scroll right to see more
 ConditionsComfort  
Time TempWeatherWind HumidityBarometerVisibility
8:50 am
Fri, Apr 28
41 °FLight rain. Broken clouds.2 mph93%29.89 "Hg4 mi
8:20 am41 °FLight rain. Broken clouds.3 mph93%29.89 "Hg4 mi
7:50 am41 °FLight rain. Broken clouds.2 mph87%29.89 "Hg4 mi
7:20 am41 °FLight rain. Broken clouds.No wind87%29.89 "Hg4 mi
6:50 am41 °FLight rain. Broken clouds.No wind87%29.89 "Hg4 mi
6:20 am41 °FBroken clouds.No wind93%29.89 "Hg4 mi
5:50 am39 °FPartly cloudy.2 mph93%29.86 "Hg5 mi
5:20 am39 °FPartly cloudy.No wind93%29.86 "HgN/A
4:50 am39 °FPartly cloudy.2 mph93%29.86 "HgN/A
4:20 am39 °FPartly cloudy.No wind93%29.86 "HgN/A
3:50 am39 °FPartly cloudy.No wind93%29.86 "HgN/A
3:20 am39 °FPassing clouds.No wind93%29.89 "HgN/A
2:50 am39 °FPassing clouds.No wind93%29.89 "HgN/A
2:20 am39 °FPartly cloudy.1 mph93%29.89 "HgN/A
1:50 am39 °FLight rain. Partly cloudy.2 mph93%29.89 "HgN/A
1:20 am39 °FLight rain. Partly cloudy.1 mph93%29.92 "HgN/A
12:50 am39 °FPartly cloudy.2 mph93%29.92 "HgN/A
12:20 am39 °FPartly cloudy.No wind93%29.92 "HgN/A
11:50 pm
Thu, Apr 27
39 °FClear.No wind93%29.92 "Hg10 mi
11:20 pm41 °FPassing clouds.No wind87%29.92 "HgN/A
10:50 pm41 °FPassing clouds.No wind87%29.92 "HgN/A
10:20 pm41 °FPassing clouds.No wind87%29.95 "HgN/A
9:50 pm43 °FPartly cloudy.No wind81%29.95 "HgN/A
8:50 pm43 °FPassing clouds.No wind87%29.95 "HgN/A
8:20 pm43 °FSunny.No wind87%29.95 "Hg10 mi
7:50 pm45 °FSunny.No wind81%29.92 "Hg10 mi
7:20 pm45 °FSunny.1 mph76%29.92 "Hg10 mi
6:50 pm45 °FSunny.2 mph76%29.92 "Hg10 mi
6:20 pm46 °FSunny.2 mph71%29.95 "Hg10 mi
5:50 pm45 °FSunny.5 mph76%29.95 "Hg10 mi
5:20 pm46 °FPartly sunny.6 mph71%29.95 "HgN/A
4:50 pm45 °FPartly sunny.3 mph71%29.95 "HgN/A
4:25 pm45 °FDrizzle. Partly sunny.2 mph71%29.95 "HgN/A
4:20 pm45 °FDrizzle. Partly sunny.2 mph71%29.95 "HgN/A
3:50 pm46 °FDrizzle. Partly sunny.2 mph66%29.95 "HgN/A
2:50 pm45 °FQuite cool.3 mph76%29.95 "HgN/A
2:20 pm45 °FDrizzle. Broken clouds.3 mph81%29.95 "HgN/A
1:50 pm45 °FDrizzle. Broken clouds.2 mph76%29.95 "HgN/A
1:29 pm43 °FDrizzle. Broken clouds.2 mph81%29.95 "HgN/A
12:50 pm43 °FDrizzle. Broken clouds.5 mph81%29.95 "HgN/A
12:20 pm43 °FBroken clouds.3 mph87%29.95 "HgN/A
11:50 am43 °FDrizzle. Broken clouds.No wind81%29.98 "HgN/A
11:20 am43 °FLight rain. Broken clouds.2 mph81%29.95 "HgN/A
10:50 am41 °FLight rain. Broken clouds.3 mph87%29.95 "HgN/A
10:20 am41 °FLight rain. Broken clouds.2 mph93%29.95 "Hg6 mi
Weather by CustomWeather, © 2017

See weather overviewHow to use our weather pages